TimeEST,TemperatureF,Dew PointF,Humidity,Sea Level PressureIn,VisibilityMPH,Wind Direction,Wind SpeedMPH,Gust SpeedMPH,PrecipitationIn,Events,Conditions,WindDirDegrees,DateUTC
12:15 AM,39.7,38.8,97,29.98,3.0,Calm,Calm,-,N/A,,Clear,0,2013-02-20 05:15:00
12:35 AM,39.9,39.0,97,29.98,5.0,West,3.5,-,N/A,,Clear,260,2013-02-20 05:35:00
12:55 AM,39.6,38.7,97,29.99,7.0,WSW,5.8,-,N/A,,Clear,250,2013-02-20 05:55:00
1:15 AM,37.8,36.9,97,29.99,7.0,WSW,4.6,-,N/A,,Clear,240,2013-02-20 06:15:00
1:35 AM,37.4,36.5,97,30.00,10.0,Calm,Calm,-,N/A,,Clear,0,2013-02-20 06:35:00
2:15 AM,35.8,34.7,96,30.01,10.0,Calm,Calm,-,N/A,,Clear,0,2013-02-20 07:15:00
2:35 AM,35.4,33.6,93,30.01,10.0,WSW,3.5,-,N/A,,Clear,250,2013-02-20 07:35:00
3:15 AM,34.7,29.8,82,30.00,10.0,WNW,4.6,-,N/A,,Clear,290,2013-02-20 08:15:00
3:35 AM,35.6,26.6,70,30.00,10.0,Calm,Calm,-,N/A,,Clear,0,2013-02-20 08:35:00
3:55 AM,36.7,23.7,59,30.01,10.0,WNW,5.8,-,N/A,,Clear,300,2013-02-20 08:55:00
4:15 AM,36.9,22.5,56,30.02,10.0,WNW,5.8,-,N/A,,Clear,300,2013-02-20 09:15:00
4:35 AM,37.0,21.0,52,30.03,10.0,NW,6.9,-,N/A,,Clear,310,2013-02-20 09:35:00
4:55 AM,36.1,20.8,54,30.03,10.0,NW,6.9,-,N/A,,Clear,320,2013-02-20 09:55:00
5:15 AM,37.6,17.8,45,30.04,10.0,NW,4.6,-,N/A,,Clear,310,2013-02-20 10:15:00
5:35 AM,36.7,18.1,47,30.05,10.0,NW,4.6,-,N/A,,Clear,320,2013-02-20 10:35:00
5:55 AM,35.6,18.5,50,30.06,10.0,NW,3.5,-,N/A,,Clear,310,2013-02-20 10:55:00
6:15 AM,34.5,18.9,53,30.06,10.0,NNW,3.5,-,N/A,,Clear,330,2013-02-20 11:15:00
6:35 AM,32.2,21.6,65,30.06,10.0,Calm,Calm,-,N/A,,Clear,0,2013-02-20 11:35:00
7:15 AM,26.6,23.9,90,30.08,10.0,Calm,Calm,-,N/A,,Clear,0,2013-02-20 12:15:00
7:35 AM,26.2,23.2,88,30.09,10.0,SSW,4.6,-,N/A,,Clear,200,2013-02-20 12:35:00
7:55 AM,28.6,25.5,88,30.09,10.0,Calm,Calm,-,N/A,,Clear,0,2013-02-20 12:55:00
8:15 AM,31.5,27.0,83,30.09,10.0,Calm,Calm,-,N/A,,Clear,0,2013-02-20 13:15:00
8:55 AM,37.6,24.4,59,30.09,10.0,Calm,Calm,-,N/A,,Clear,0,2013-02-20 13:55:00
9:15 AM,40.3,22.8,50,30.09,10.0,Calm,Calm,-,N/A,,Clear,0,2013-02-20 14:15:00
9:35 AM,42.1,17.6,37,30.09,10.0,WNW,6.9,-,N/A,,Clear,300,2013-02-20 14:35:00
9:55 AM,43.3,17.8,36,30.10,10.0,West,5.8,-,N/A,,Clear,280,2013-02-20 14:55:00
10:15 AM,43.7,18.5,36,30.10,10.0,WNW,5.8,-,N/A,,Clear,290,2013-02-20 15:15:00
10:35 AM,44.8,16.0,31,30.10,10.0,WNW,6.9,-,N/A,,Clear,300,2013-02-20 15:35:00
10:55 AM,45.7,14.4,28,30.10,10.0,WNW,6.9,-,N/A,,Clear,290,2013-02-20 15:55:00
11:15 AM,46.4,15.4,29,30.10,10.0,NW,9.2,-,N/A,,Clear,310,2013-02-20 16:15:00
11:35 AM,46.9,13.8,26,30.10,10.0,West,6.9,-,N/A,,Clear,270,2013-02-20 16:35:00
12:15 PM,48.0,13.5,25,30.09,10.0,West,6.9,-,N/A,,Clear,260,2013-02-20 17:15:00
12:35 PM,49.1,16.3,27,30.08,10.0,WSW,9.2,-,N/A,,Clear,250,2013-02-20 17:35:00
12:55 PM,49.5,16.7,27,30.06,10.0,WSW,5.8,-,N/A,,Clear,240,2013-02-20 17:55:00
1:15 PM,50.4,18.7,29,30.05,10.0,West,8.1,16.1,N/A,,Clear,280,2013-02-20 18:15:00
1:35 PM,51.1,17.2,26,30.05,10.0,SW,5.8,-,N/A,,Clear,220,2013-02-20 18:35:00
1:55 PM,51.4,14.9,23,30.04,10.0,West,5.8,-,N/A,,Clear,280,2013-02-20 18:55:00
2:15 PM,52.3,15.1,23,30.03,10.0,West,10.4,17.3,N/A,,Clear,280,2013-02-20 19:15:00
2:35 PM,52.0,14.9,23,30.02,10.0,SW,4.6,-,N/A,,Clear,230,2013-02-20 19:35:00
3:15 PM,53.2,15.1,22,30.02,10.0,WNW,4.6,23.0,N/A,,Clear,300,2013-02-20 20:15:00
3:55 PM,53.1,12.4,20,30.02,10.0,West,6.9,18.4,N/A,,Clear,270,2013-02-20 20:55:00
4:15 PM,53.4,14.4,21,30.02,10.0,SW,10.4,-,N/A,,Clear,220,2013-02-20 21:15:00
4:35 PM,53.4,14.2,21,30.03,10.0,WSW,8.1,-,N/A,,Clear,240,2013-02-20 21:35:00
4:55 PM,53.2,15.1,22,30.03,10.0,SW,9.2,-,N/A,,Clear,230,2013-02-20 21:55:00
5:15 PM,52.9,15.3,23,30.03,10.0,WSW,4.6,-,N/A,,Clear,250,2013-02-20 22:15:00
5:35 PM,52.2,17.1,25,30.04,10.0,WSW,4.6,-,N/A,,Clear,250,2013-02-20 22:35:00
6:15 PM,45.5,27.1,49,30.05,10.0,Calm,Calm,-,N/A,,Clear,0,2013-02-20 23:15:00
6:35 PM,43.5,25.5,49,30.06,10.0,Calm,Calm,-,N/A,,Clear,0,2013-02-20 23:35:00
6:55 PM,41.5,27.1,57,30.07,10.0,Calm,Calm,-,N/A,,Clear,0,2013-02-20 23:55:00
7:15 PM,39.6,26.6,60,30.07,10.0,Calm,Calm,-,N/A,,Clear,0,2013-02-21 00:15:00
7:35 PM,38.7,27.0,63,30.08,10.0,Calm,Calm,-,N/A,,Clear,0,2013-02-21 00:35:00
7:55 PM,37.8,26.6,64,30.08,10.0,Calm,Calm,-,N/A,,Clear,0,2013-02-21 00:55:00
8:15 PM,36.5,26.6,67,30.08,10.0,Calm,Calm,-,N/A,,Clear,0,2013-02-21 01:15:00
8:35 PM,36.1,25.9,66,30.09,10.0,Calm,Calm,-,N/A,,Clear,0,2013-02-21 01:35:00
8:55 PM,33.4,25.7,73,30.10,10.0,North,4.6,-,N/A,,Clear,10,2013-02-21 01:55:00
9:15 PM,34.7,25.5,69,30.12,10.0,Calm,Calm,-,N/A,,Clear,0,2013-02-21 02:15:00
9:35 PM,32.5,25.2,74,30.11,10.0,Calm,Calm,-,N/A,,Clear,0,2013-02-21 02:35:00
9:55 PM,32.0,24.8,75,30.12,10.0,Calm,Calm,-,N/A,,Clear,0,2013-02-21 02:55:00
10:15 PM,30.4,24.4,79,30.12,10.0,Calm,Calm,-,N/A,,Clear,0,2013-02-21 03:15:00
10:35 PM,31.6,24.6,75,30.13,10.0,NNE,3.5,-,N/A,,Clear,20,2013-02-21 03:35:00
10:55 PM,34.2,19.8,56,30.12,10.0,NNE,4.6,-,N/A,,Clear,20,2013-02-21 03:55:00
11:15 PM,33.8,19.0,55,30.13,10.0,NNE,3.5,-,N/A,,Clear,30,2013-02-21 04:15:00
11:35 PM,30.6,22.8,73,30.14,10.0,Calm,Calm,-,N/A,,Clear,0,2013-02-21 04:35:00
11:55 PM,30.6,21.4,69,30.13,10.0,Calm,Calm,-,N/A,,Clear,0,2013-02-21 04:55:00